Location: Peebles
(55.6412°N, 3.1714°W)
Time: 01:35:43
(UTC+01:00)

deb r/b Ablestar - Pass Details

Date: 11 July 2022
Orbit: 859 x 1154 km, 67.2° (Epoch: 13 August)

Event Time Altitude Azimuth Distance (km) Brightness Sun altitude
Rises 00:30:48 0° 318° (NW) 4,021 ? -11.6°
Reaches altitude 10° 00:33:34 10° 314° (NW) 3,065 ? -11.6°
Maximum altitude 00:40:39 53° 241° (WSW) 1,382 ? -11.8°
Enters shadow 00:46:27 15° 169° (S) 2,618 ? -11.9°
